Orbital Elements at Epoch 2459200.5 (2020-Dec-17.0) TDB
Reference: JPL 20 (heliocentric ecliptic J2000)
Element | Value | Uncertainty (1-sigma) | Units |
e | .176593507712136 | 3.9154e-08 | |
a | 2.625546822657991 | 1.2366e-08 | au |
q | 2.161892299582363 | 1.0721e-07 | au |
i | 4.719609498831083 | 5.208e-06 | deg |
node | 173.7017541910618 | 4.7566e-05 | deg |
peri | 277.478529748635 | 5.0075e-05 | deg |
M | 310.9534437218712 | 1.6351e-05 | deg |
tp | 2459412.206453606398 (2021-Jul-16.70645361) | 7.1081e-05 | TDB |
period | 1553.917931895442 4.25 | 1.0978e-05 3.006e-08 | d yr |
n | .2316724664866171 | 1.6368e-09 | deg/d |
Q | 3.089201345733619 | 1.455e-08 | au |
|
| | Orbit Determination Parameters
Additional Information
|